Regional Weather Roundup
Issued by NWS

Home | Current Version | Previous Version | Text Only | Print | Product List | Glossary Off
Versions: 1 2 3 4 5 6 7 8 9 10 11 12 13 14 15 16 17 18 19 20 21 22 23 24 25 26 27

000
ASUS45 KTFX 240010
RWRMT
MONTANA REGIONAL WEATHER ROUNDUP
NATIONAL WEATHER SERVICE GREAT FALLS MT
600 PM MDT SAT SEP 23 2017

NOTE: "FAIR" INDICATES FEW OR NO CLOUDS BELOW 12000 FEET WITH NO
SIGNIFICANT WEATHER AND/OR OBSTRUCTIONS TO VISIBILITY.

MTZ001>007-043-240100-
WEST OF THE DIVIDE

CITY           SKY/WX    TMP DP  RH WIND       PRES   REMARKS
KALISPELL      CLOUDY    51  38  60 CALM      30.10R
MISSOULA       CLOUDY    51  34  52 CALM      30.11R
BUTTE          CLOUDY    45  27  49 NW9       30.09R
MULLAN PASS    PTSUNNY   37  32  82 NW3       30.10R
ANACONDA         N/A     45  27  49 CALM      30.10R
DEER LODGE       N/A     46  27  46 NW9       30.12S
EUREKA           N/A     54  36  50 CALM      30.07S
HAMILTON         N/A     50  28  43 CALM      30.11R
LIBBY            N/A     59  37  44 CALM      30.05R
$$

MTZ008-052>055-240100-
SOUTHWEST MONTANA

CITY           SKY/WX    TMP DP  RH WIND       PRES   REMARKS
BOZEMAN        SUNNY     49  33  54 S7        30.08R
DILLON         CLOUDY    48  28  46 CALM      30.06R
W YELLOWSTONE  CLOUDY    45  27  49 MISG      30.01R
ENNIS          CLOUDY    45  30  57 N10       30.11S
THREE FORKS      N/A     50  32  50 CALM      30.07R
$$

MTZ009-010-012-014-046-048-049-054-240100-
EAST SLOPES AND CENTRAL MONTANA

CITY           SKY/WX    TMP DP  RH WIND       PRES   REMARKS
CUT BANK       CLOUDY    51  34  52 S7        30.04S
GREAT FALLS    CLOUDY    51  28  41 SW5       30.07R
MALMSTROM AFB  MOSUNNY   51  30  44 W5        30.07S
HELENA         CLOUDY    50  30  46 W6        30.08R
BOWMANS CRNR   PTSUNNY   47  28  46 W6        30.06R
CHOTEAU          N/A     52  30  43 S6        30.08R
POWER          PTSUNNY   49  30  47 SW5       30.06S
ULM            PTSUNNY   50  32  49 SW6       30.07S
$$

MTZ011-013-016-021-045-047-050-051-240100-
NORTH CENTRAL MONTANA

CITY           SKY/WX    TMP DP  RH WIND       PRES   REMARKS
HAVRE          PTSUNNY   53  35  50 E5        30.08R
LEWISTOWN      CLOUDY    46  38  73 E10       30.07S
N BAR RANCH    CLOUDY    41  39  93 SE5       30.12R
CHINOOK          N/A     52  39  62 E12       30.09R
DENTON           N/A     51  37  60 NE6       30.04S
$$

MTZ017>020-022>027-061-062-240100-
NORTHEAST MONTANA

CITY           SKY/WX    TMP DP  RH WIND       PRES   REMARKS
GLASGOW        MOCLDY    50  36  58 SE6       30.12R
JORDAN           N/A     49  38  65 CALM      30.11R
SIDNEY         LGT RAIN  47  44  90 N5        30.12S
WOLF POINT     CLOUDY    52  36  54 CALM      30.12S
MALTA          CLOUDY    50  41  71 S7        30.13R
PLENTYWOOD       N/A     52  37  58 CALM      30.12R
POPLAR           N/A     50  37  62 CALM      30.12F
SCOBEY           N/A     50  33  51 CALM      30.10
$$

MTZ028>42-056>058-240100-
SOUTHCENTRAL AND SOUTHEAST MONTANA

CITY           SKY/WX    TMP DP  RH WIND       PRES   REMARKS
BAKER          LGT RAIN  44  42  93 NE8       30.10R
BILLINGS       CLOUDY    45  38  76 NE5       30.11R
LIVINGSTON     CLOUDY    47  33  58 CALM      30.07R
MILES CITY     LGT RAIN  44  41  89 N5        30.12R
BIG TIMBER     CLOUDY    45  34  65 S7        30.12R
LAUREL           N/A     46  41  81 E5        30.11R
$$

REGIONAL REPORTS...DAKOTAS

CITY           SKY/WX    TMP DP  RH WIND       PRES   REMARKS
WILLISTON      LGT RAIN  49  42  77 N6        30.12S
MINOT          CLOUDY    53  43  68 N7        30.10S
DICKINSON      RAIN      45  44  97 N9        30.08S FOG
BEACH          DRIZZLE   43  45 100 NE8       30.12F
CROSBY         MOCLDY    50  37  62 NE6       30.13F
TIOGA          CLOUDY    45  45 100 E3        30.14S
WATFORD CITY   LGT RAIN  46  45  93 N6        30.12S
BISMARCK       CLOUDY    56  45  66 N13       30.03F
GRAND FORKS    CLOUDY    60  50  69 N10       30.05R
FARGO          CLOUDY    59  51  75 N12       30.01S
BUFFALO SD       N/A     45  44  97 NE8       30.02R
RAPID CITY     CLOUDY    46  45  93 N12       30.03R
$$

REGIONAL REPORTS...WYOMING/IDAHO/WASHINGTON

CITY           SKY/WX    TMP DP  RH WIND       PRES   REMARKS
GILLETTE       CLOUDY    42  41  96 N13       30.02F
SHERIDAN       LGT RAIN  42  41  96 N5        30.07F
BUFFALO WY     LGT RAIN  39  36  89 N12       30.06F WCI  32
CODY           CLOUDY    41  35  79 N9        30.07R
IDAHO FALLS    MOSUNNY   53  32  44 N9G21     29.99S
SALMON         CLOUDY    51  30  44 N13       30.07R
BOISE          SUNNY     60  34  37 NW14      30.01S
SPOKANE        PTSUNNY   59  39  47 SW8       30.08R
$$

REGIONAL REPORTS...ALBERTA

CITY           SKY/WX    TMP DP  RH WIND       PRES   REMARKS
EDMONTON       CLOUDY    54  39  58 SE7       30.02S
CALGARY        MOSUNNY   50  32  50 S8        30.03S
LETHBRIDGE     MOSUNNY   50  34  53 E5        30.05R
MEDICINE HAT   CLOUDY    52  36  54 E6        30.07R
$$

REGIONAL REPORTS...SASKATCHEWAN

CITY           SKY/WX    TMP DP  RH WIND       PRES   REMARKS
SWIFT CURRENT    N/A     50  34  53 S7        30.09S
REGINA         MOCLDY    50  34  53 NE3       30.14S
SASKATOON      CLOUDY    50  37  62 S3        30.14S
$$




USA.gov is the U.S. government's official web portal to all federal, state and local government web resources and services.